Regional Weather Roundup
Issued by NWS Bismarck, ND

Home | Current Version | Previous Version | Text Only | Print | Product List | Glossary On
Versions: 1 2 3 4 5 6 7 8 9 10 11 12 13 14 15 16 17 18 19 20 21 22 23 24 25 26 27 28 29 30 31 32 33 34 35 36 37 38 39 40 41 42 43 44 45 46 47 48 49 50
000
ASUS43 KBIS 170902
RWRBIS

NWR BROADCAST TEXT
NATIONAL WEATHER SERVICE BISMARCK ND
400 AM CDT THU AUG 17 2017

NOTE: "FAIR" INDICATES FEW OR NO CLOUDS BELOW 12,000 FEET WITH NO
SIGNIFICANT WEATHER AND/OR OBSTRUCTIONS TO VISIBILITY.


CITY           SKY/WX    TMP DP  RH WIND       PRES   REMARKS
WILLISTON      CLOUDY    64  54  69 NE7       29.85S
MINOT          PTCLDY    62  52  69 S7        29.87F
MINOT AFB      CLOUDY    59  52  77 SW7       29.86S
BISMARCK       CLOUDY    56  54  93 CALM      29.90F
DICKINSON      CLEAR     57  53  86 S8        29.88F
GARRISON         N/A     57  55  93 CALM      29.89S
HETTINGER ARPT CLEAR     58  49  72 SE5       29.94F
JAMESTOWN      CLEAR     56  54  93 NW7       29.84S
CARRINGTON     FAIR      55  54  94 NW6       29.89S
HAZEN            N/A     57  57 100 CALM      29.90F
LINTON         FAIR      52  52 100 CALM      29.92R
MANDAN         PTSUNNY   55  54  94 W3        29.90F
RUGBY          FAIR      52  52 100 SW5       29.88R
STANLEY        RAIN      63  61  94 S7G13     29.92R
TIOGA          CLOUDY    63  63 100 SE9       29.89F
WATFORD CITY   FAIR      59  54  82 E5        29.85S
$$

CITY           SKY/WX    TMP DP  RH WIND       PRES   REMARKS
GRAND FORKS    FOG       60  60 100 N7        29.81R VSB 1/2
GRAND FORKS AF CLOUDY    58  58 100 N10       29.82R
DEVILS LAKE    CLEAR     55  54  96 NW5       29.87S
FARGO          CLOUDY    63  62  97 N16       29.76S
CANDO          FAIR      52  52 100 NW3       29.89S
CAVALIER       FOG       55  55 100 CALM      29.83S VSB<1/4
GRAFTON        FOG       59  59 100 N9        29.84S VSB 1/4
GWINNER        SUNNY     59  59 100 NW9       29.80S
LANGDON        FOG       50  50 100 W5        29.87S VSB 1/4
ROLLA          FAIR      48  48 100 CALM      29.89S
WALHALLA       FOG       52  52 100 CALM      29.84S VSB 1/4
$$

CITY           SKY/WX    TMP DP  RH WIND       PRES   REMARKS
ABERDEEN       CLEAR     57  56  96 NW7       29.83S
MOBRIDGE       CLEAR     55  54  96 N5        29.88S FOG
BUFFALO          N/A     58  49  72 SE8       29.85F
RAPID CITY     CLEAR     55  49  80 CALM      29.96F
GLASGOW        CLEAR     56  43  61 N6        29.83R
SIDNEY         PTCLDY    60  52  74 S7        29.82F
WOLF POINT     CLOUDY    55  46  71 CALM      29.81S
GLENDIVE       PTCLDY    61  44  53 MISG      29.84F
MILES CITY     CLEAR     63  39  41 SW5       29.84S
BAKER          CLEAR     56  47  71 E9        29.89S
$$

CITY           SKY/WX    TMP DP  RH WIND       PRES   REMARKS
BILLINGS       CLOUDY    67  39  35 SW3       29.93S
GREAT FALLS    PTCLDY    59  29  31 SW13      29.96R
$$




USA.gov is the U.S. government's official web portal to all federal, state and local government web resources and services.